CW2722 Weather Reports


Display with metric or nautical units.
time (UTC)temp
F
wind
direction
speed
MPH
gust
MPH
rain 1hr
in
rain 24hr
in
rain mn
in
humidity
%
barometer
mb
20260504130615 54 155 0.0 1.0 0.00 0.00 0.00 88 1018.1
20260504130516 53 176 0.0 1.0 0.00 0.00 0.00 88 1018.1
20260504130415 53 176 0.0 1.0 0.00 0.00 0.00 89 1018.1
20260504130314 53 176 0.0 1.0 0.00 0.00 0.00 89 1018.1
20260504130213 53 213 0.0 1.0 0.00 0.00 0.00 91 1018.1
20260504130112 52 213 0.0 1.0 0.00 0.00 0.00 92 1018.1
20260504120215 43 271 0.0 0.0 0.00 0.00 0.00 95 1018.2
20260504110643 39 271 0.0 0.0 0.00 0.00 0.00 94 1017.9
20260504110543 39 271 0.0 0.0 0.00 0.00 0.00 94 1017.8
20260504110444 39 271 0.0 0.0 0.00 0.00 0.00 94 1017.8
20260504110336 39 271 0.0 0.0 0.00 0.00 0.00 94 1017.8
20260504110243 39 271 0.0 0.0 0.00 0.00 0.00 94 1017.8
20260504110139 39 271 0.0 0.0 0.00 0.00 0.00 94 1017.6
20260504100559 40 271 0.0 0.0 0.00 0.00 0.00 94 1017.4
20260504100253 40 271 0.0 0.0 0.00 0.00 0.00 94 1017.4
20260504100154 40 271 0.0 0.0 0.00 0.00 0.00 94 1017.5
20260504100120 40 271 0.0 0.0 0.00 0.00 0.00 94 1017.4
20260504100111 40 271 0.0 0.0 0.00 0.00 0.00 94 1017.4
20260504090109 41 271 0.0 0.0 0.00 0.00 0.00 94 1017.4
20260504081910 42 271 0.0 0.0 0.00 0.00 0.00 94 1017.1
20260504081827 42 271 0.0 0.0 0.00 0.00 0.00 94 1017.1
20260504081809 42 271 0.0 0.0 0.00 0.00 0.00 94 1017.2
20260504081709 42 271 0.0 0.0 0.00 0.00 0.00 94 1017.1
20260504081610 42 271 0.0 0.0 0.00 0.00 0.00 94 1017.1
20260504081510 42 271 0.0 0.0 0.00 0.00 0.00 94 1017.1
20260504081409 42 271 0.0 0.0 0.00 0.00 0.00 94 1017.1
20260504081308 42 271 0.0 0.0 0.00 0.00 0.00 94 1017.1
20260504081209 42 271 0.0 0.0 0.00 0.00 0.00 94 1017.1
20260504081110 42 271 0.0 0.0 0.00 0.00 0.00 94 1017.1
20260504081041 42 271 0.0 0.0 0.00 0.00 0.00 94 1017.2
20260504081029 42 271 0.0 0.0 0.00 0.00 0.00 94 1017.2
20260504080910 42 271 0.0 0.0 0.00 0.00 0.00 94 1017.1
20260504080902 42 271 0.0 0.0 0.00 0.00 0.00 94 1017.2
20260504080857 42 271 0.0 0.0 0.00 0.00 0.00 94 1017.2
20260504080841 42 271 0.0 0.0 0.00 0.00 0.00 94 1017.1
20260504080510 42 271 0.0 0.0 0.00 0.00 0.00 94 1017.2
20260504080440 42 271 0.0 0.0 0.00 0.00 0.00 94 1017.2
20260504080310 42 271 0.0 0.0 0.00 0.00 0.00 94 1017.2
20260504080209 42 271 0.0 0.0 0.00 0.00 0.00 94 1017.2
20260504080109 42 271 0.0 0.0 0.00 0.00 0.00 94 1017.1
20260504070331 43 271 0.0 0.0 0.00 0.00 0.00 93 1017.6
20260504070325 43 271 0.0 0.0 0.00 0.00 0.00 93 1017.5
20260504070258 43 271 0.0 0.0 0.00 0.00 0.00 93 1017.5
20260504070158 43 271 0.0 0.0 0.00 0.00 0.00 93 1017.5
20260504070123 43 271 0.0 0.0 0.00 0.00 0.00 93 1017.5
20260504070115 43 271 0.0 0.0 0.00 0.00 0.00 93 1017.5
20260504060221 45 271 0.0 0.0 0.00 0.00 0.00 90 1018.2
20260504060119 45 271 0.0 0.0 0.00 0.00 0.00 90 1018.2
20260504050642 48 271 0.0 0.0 0.00 0.00 0.00 86 1018.1
20260504050538 48 271 0.0 0.0 0.00 0.00 0.00 86 1018.1
20260504050440 48 271 0.0 0.0 0.00 0.00 0.00 86 1018.0
20260504050321 48 271 0.0 0.0 0.00 0.00 0.00 86 1018.1
20260504050236 48 271 0.0 0.0 0.00 0.00 0.00 86 1018.1
20260504050138 48 271 0.0 0.0 0.00 0.00 0.00 86 1018.0
20260504045934 48 271 0.0 0.0 0.00 0.00 0.00 86 1018.0
20260504045820 48 271 0.0 0.0 0.00 0.00 0.00 85 1018.0
20260504045757 48 271 0.0 0.0 0.00 0.00 0.00 86 1018.0
20260504045749 48 271 0.0 0.0 0.00 0.00 0.00 86 1018.0
20260504045532 48 271 0.0 0.0 0.00 0.00 0.00 86 1018.0
20260504045432 48 271 0.0 0.0 0.00 0.00 0.00 86 1018.0
20260504045335 48 271 0.0 0.0 0.00 0.00 0.00 85 1018.1
20260504045321 48 271 0.0 0.0 0.00 0.00 0.00 86 1018.1
20260504045254 48 271 0.0 0.0 0.00 0.00 0.00 86 1018.1
20260504045246 48 271 0.0 0.0 0.00 0.00 0.00 86 1018.1
20260504045028 48 271 0.0 0.0 0.00 0.00 0.00 86 1018.1
20260504044944 48 271 0.0 0.0 0.00 0.00 0.00 86 1018.1
20260504044929 48 271 0.0 0.0 0.00 0.00 0.00 85 1018.1
20260504044725 48 271 0.0 0.0 0.00 0.00 0.00 85 1018.1
20260504044624 48 271 0.0 0.0 0.00 0.00 0.00 85 1018.1
20260504044524 48 271 0.0 0.0 0.00 0.00 0.00 85 1018.1
20260504044424 48 271 0.0 0.0 0.00 0.00 0.00 85 1018.1
20260504044321 48 271 0.0 0.0 0.00 0.00 0.00 85 1018.1
20260504044220 48 271 0.0 0.0 0.00 0.00 0.00 85 1018.1
20260504044147 48 271 0.0 0.0 0.00 0.00 0.00 84 1018.1
20260504044140 48 271 0.0 0.0 0.00 0.00 0.00 85 1018.1
20260504043920 49 271 0.0 0.0 0.00 0.00 0.00 84 1018.1
20260504043820 49 271 0.0 0.0 0.00 0.00 0.00 84 1018.1
20260504043721 49 271 0.0 0.0 0.00 0.00 0.00 84 1018.2
20260504043644 49 271 0.0 0.0 0.00 0.00 0.00 83 1018.2
20260504043637 49 271 0.0 0.0 0.00 0.00 0.00 84 1018.2
20260504043417 49 271 0.0 0.0 0.00 0.00 0.00 83 1018.2
20260504043317 49 271 0.0 0.0 0.00 0.00 0.00 82 1018.2
20260504043217 49 271 0.0 0.0 0.00 0.00 0.00 82 1018.2
20260504043117 49 271 0.0 0.0 0.00 0.00 0.00 82 1018.2
20260504043109 49 271 0.0 0.0 0.00 0.00 0.00 82 1018.2
20260504043104 49 271 0.0 0.0 0.00 0.00 0.00 82 1018.2
20260504043050 49 271 0.0 0.0 0.00 0.00 0.00 82 1018.2
20260504042918 49 271 0.0 0.0 0.00 0.00 0.00 82 1018.2
20260504042713 49 271 0.0 0.0 0.00 0.00 0.00 82 1018.2
20260504042614 49 271 0.0 0.0 0.00 0.00 0.00 81 1018.3
20260504042510 49 271 0.0 0.0 0.00 0.00 0.00 81 1018.3
20260504042438 49 271 0.0 0.0 0.00 0.00 0.00 81 1018.3
20260504042429 49 271 0.0 0.0 0.00 0.00 0.00 81 1018.3
20260504042415 49 271 0.0 0.0 0.00 0.00 0.00 81 1018.3
20260504042209 49 271 0.0 0.0 0.00 0.00 0.00 81 1018.4
20260504042108 49 271 0.0 0.0 0.00 0.00 0.00 81 1018.3
20260504042007 49 271 0.0 0.0 0.00 0.00 0.00 81 1018.3
20260504041933 49 271 0.0 0.0 0.00 0.00 0.00 81 1018.3
20260504041804 49 271 0.0 0.0 0.00 0.00 0.00 81 1018.3
20260504041705 49 271 0.0 0.0 0.00 0.00 0.00 81 1018.3
20260504041605 49 271 0.0 0.0 0.00 0.00 0.00 81 1018.3
20260504041529 49 271 0.0 0.0 0.00 0.00 0.00 81 1018.2
20260504041519 49 271 0.0 0.0 0.00 0.00 0.00 81 1018.3
20260504041320 49 271 0.0 0.0 0.00 0.00 0.00 81 1018.2
20260504041301 49 271 0.0 0.0 0.00 0.00 0.00 81 1018.2
20260504041201 49 271 0.0 0.0 0.00 0.00 0.00 82 1018.2
20260504041100 49 271 0.0 0.0 0.00 0.00 0.00 82 1018.2
20260504041003 49 271 0.0 1.0 0.00 0.00 0.00 82 1018.2
20260504040955 49 271 0.0 1.0 0.00 0.00 0.00 83 1018.2
20260504040939 49 271 0.0 1.0 0.00 0.00 0.00 82 1018.2
20260504040822 49 271 0.0 1.0 0.00 0.00 0.00 82 1018.2
20260504040815 49 271 0.0 1.0 0.00 0.00 0.00 83 1018.2
20260504040621 49 271 0.0 1.0 0.00 0.00 0.00 84 1018.2
20260504040613 49 271 0.0 1.0 0.00 0.00 0.00 84 1018.2
20260504040355 49 271 0.0 1.0 0.00 0.00 0.00 84 1018.2
20260504040345 49 271 0.0 1.0 0.00 0.00 0.00 84 1018.1
20260504040339 49 263 0.0 0.0 0.00 0.00 0.00 85 1018.1
20260504040331 49 271 0.0 1.0 0.00 0.00 0.00 84 1018.1
20260504040322 49 271 0.0 1.0 0.00 0.00 0.00 84 1018.1
20260504035957 48 264 0.0 0.0 0.00 0.00 0.00 85 1018.2
20260504035951 48 264 0.0 0.0 0.00 0.00 0.00 85 1018.1
20260504035934 48 263 0.0 0.0 0.00 0.00 0.00 85 1018.1
20260504035816 48 263 0.0 0.0 0.00 0.00 0.00 85 1018.1
20260504035806 48 264 0.0 0.0 0.00 0.00 0.00 85 1018.1
20260504035548 48 263 0.0 0.0 0.00 0.00 0.00 85 1018.1
20260504035447 48 264 0.0 0.0 0.00 0.00 0.00 85 1018.2
20260504035347 49 263 0.0 0.0 0.00 0.00 0.00 85 1018.2
20260504035316 49 263 0.0 0.0 0.00 0.00 0.00 85 1018.2
20260504035245 49 264 0.0 0.0 0.00 0.00 0.00 85 1018.2
20260504035209 49 263 0.0 0.0 0.00 0.00 0.00 85 1018.3
20260504035159 49 263 0.0 0.0 0.00 0.00 0.00 85 1018.2
20260504034943 49 263 0.0 0.0 0.00 0.00 0.00 85 1018.3
20260504034926 49 263 0.0 0.0 0.00 0.00 0.00 85 1018.2
20260504034917 49 263 0.0 0.0 0.00 0.00 0.00 85 1018.1
20260504034907 49 264 0.0 0.0 0.00 0.00 0.00 85 1018.2
20260504034855 49 263 0.0 0.0 0.00 0.00 0.00 85 1018.3
20260504034846 49 263 0.0 0.0 0.00 0.00 0.00 85 1018.3
20260504034733 49 263 0.0 0.0 0.00 0.00 0.00 85 1018.2
20260504034720 49 263 0.0 0.0 0.00 0.00 0.00 85 1018.2
20260504034544 49 264 0.0 0.0 0.00 0.00 0.00 85 1018.2
20260504034242 49 263 0.0 0.0 0.00 0.00 0.00 85 1018.1
20260504034205 49 263 0.0 0.0 0.00 0.00 0.00 85 1018.2
20260504034156 49 264 0.0 0.0 0.00 0.00 0.00 85 1018.2
20260504033940 49 263 0.0 0.0 0.00 0.00 0.00 85 1018.2
20260504033816 49 264 0.0 0.0 0.00 0.00 0.00 85 1018.2
20260504033737 49 264 0.0 0.0 0.00 0.00 0.00 84 1018.2
20260504033637 49 264 0.0 0.0 0.00 0.00 0.00 84 1018.2
20260504033538 49 264 0.0 0.0 0.00 0.00 0.00 84 1018.2
20260504033437 49 264 0.0 0.0 0.00 0.00 0.00 83 1018.2
20260504033337 49 263 0.0 0.0 0.00 0.00 0.00 83 1018.2
20260504033316 49 264 0.0 0.0 0.00 0.00 0.00 83 1018.2
20260504033236 49 264 0.0 0.0 0.00 0.00 0.00 83 1018.2
20260504033137 49 264 0.0 0.0 0.00 0.00 0.00 83 1018.2
20260504033034 49 263 0.0 0.0 0.00 0.00 0.00 83 1018.2
20260504032934 49 264 0.0 0.0 0.00 0.00 0.00 83 1018.2
20260504032833 49 264 0.0 0.0 0.00 0.00 0.00 83 1018.2
20260504032822 49 263 0.0 0.0 0.00 0.00 0.00 83 1018.2
20260504032815 49 263 0.0 0.0 0.00 0.00 0.00 83 1018.1
20260504032800 49 263 0.0 0.0 0.00 0.00 0.00 83 1018.2
20260504032751 49 263 0.0 0.0 0.00 0.00 0.00 83 1018.1
20260504032613 49 264 0.0 0.0 0.00 0.00 0.00 83 1018.2
20260504032601 49 264 0.0 0.0 0.00 0.00 0.00 83 1018.2
20260504032426 49 263 0.0 0.0 0.00 0.00 0.00 83 1018.2
20260504032228 49 263 0.0 0.0 0.00 0.00 0.00 83 1018.2
20260504032129 50 263 0.0 0.0 0.00 0.00 0.00 83 1018.2
20260504032029 50 263 0.0 0.0 0.00 0.00 0.00 83 1018.2
20260504031928 50 263 0.0 0.0 0.00 0.00 0.00 83 1018.2
20260504031829 50 264 0.0 0.0 0.00 0.00 0.00 83 1018.1
20260504031816 50 263 0.0 0.0 0.00 0.00 0.00 83 1018.1
20260504031729 50 263 0.0 0.0 0.00 0.00 0.00 83 1018.1
20260504031650 50 264 0.0 0.0 0.00 0.00 0.00 83 1018.1
20260504031642 50 263 0.0 0.0 0.00 0.00 0.00 83 1018.1
20260504031426 50 263 0.0 0.0 0.00 0.00 0.00 83 1018.1
20260504031359 50 263 0.0 0.0 0.00 0.00 0.00 83 1018.1
20260504031348 50 264 0.0 0.0 0.00 0.00 0.00 83 1018.1
20260504031339 50 263 0.0 0.0 0.00 0.00 0.00 83 1018.1
20260504031125 50 263 0.0 0.0 0.00 0.00 0.00 83 1018.1
20260504031111 51 264 0.0 0.0 0.00 0.00 0.00 80 1018.1
20260504031057 50 264 0.0 0.0 0.00 0.00 0.00 82 1018.1
20260504031052 50 264 0.0 0.0 0.00 0.00 0.00 81 1018.2
20260504031043 50 263 0.0 0.0 0.00 0.00 0.00 82 1018.1
20260504030917 51 263 0.0 0.0 0.00 0.00 0.00 81 1018.2
20260504030912 51 263 0.0 0.0 0.00 0.00 0.00 81 1018.2
20260504030849 50 263 0.0 0.0 0.00 0.00 0.00 82 1018.1
20260504030718 51 264 0.0 0.0 0.00 0.00 0.00 81 1018.2
20260504030558 51 263 0.0 0.0 0.00 0.00 0.00 81 1018.2
20260504030424 51 263 0.0 0.0 0.00 0.00 0.00 81 1018.2
20260504030222 51 263 0.0 0.0 0.00 0.00 0.00 80 1018.1
20260504030122 51 264 0.0 0.0 0.00 0.00 0.00 80 1018.1
20260504030022 51 263 0.0 0.0 0.00 0.00 0.00 80 1018.1
20260504025941 51 263 0.0 0.0 0.00 0.00 0.00 80 1018.2
20260504025923 51 264 0.0 0.0 0.00 0.00 0.00 80 1018.1
20260504025721 51 264 0.0 0.0 0.00 0.00 0.00 80 1018.1
20260504025620 51 263 0.0 0.0 0.00 0.00 0.00 80 1018.2
20260504025520 51 263 0.0 0.0 0.00 0.00 0.00 80 1018.2
20260504025418 51 264 0.0 0.0 0.00 0.00 0.00 80 1018.2
20260504025407 52 264 0.0 0.0 0.00 0.00 0.00 78 1018.1
20260504025358 51 263 0.0 0.0 0.00 0.00 0.00 80 1018.3
20260504025341 51 264 0.0 0.0 0.00 0.00 0.00 80 1018.2
20260504025209 51 264 0.0 0.0 0.00 0.00 0.00 79 1018.2
20260504025045 51 264 0.0 0.0 0.00 0.00 0.00 79 1018.2
20260504024922 52 263 0.0 0.0 0.00 0.00 0.00 79 1018.1
20260504024916 52 264 0.0 0.0 0.00 0.00 0.00 79 1018.2
20260504024854 52 264 0.0 0.0 0.00 0.00 0.00 79 1018.2
20260504024737 52 263 0.0 0.0 0.00 0.00 0.00 78 1018.1
20260504024728 52 263 0.0 0.0 0.00 0.00 0.00 79 1018.2
20260504024554 52 264 0.0 0.0 0.00 0.00 0.00 79 1018.1
20260504024421 52 264 0.0 0.0 0.00 0.00 0.00 78 1018.1
20260504024309 52 264 0.0 0.0 0.00 0.00 0.00 78 1018.1
20260504024304 53 263 0.0 0.0 0.00 0.00 0.00 78 1018.1
20260504024259 53 263 0.0 0.0 0.00 0.00 0.00 77 1018.1
20260504024255 53 263 0.0 0.0 0.00 0.00 0.00 77 1018.1
20260504024242 52 264 0.0 0.0 0.00 0.00 0.00 78 1018.1
20260504024107 52 264 0.0 0.0 0.00 0.00 0.00 78 1018.1
20260504023934 53 264 0.0 0.0 0.00 0.00 0.00 78 1018.1
20260504023612 53 263 0.0 0.0 0.00 0.00 0.00 76 1018.1
20260504023520 53 263 0.0 0.0 0.00 0.00 0.00 74 1018.1
20260504023514 53 263 0.0 0.0 0.00 0.00 0.00 76 1018.0
20260504023454 53 263 0.0 0.0 0.00 0.00 0.00 75 1018.1
20260504023329 53 263 0.0 0.0 0.00 0.00 0.00 74 1018.0
20260504023110 53 264 0.0 0.0 0.00 0.00 0.00 74 1018.0
20260504023010 53 263 0.0 0.0 0.00 0.00 0.00 74 1018.1
20260504022943 53 263 0.0 0.0 0.00 0.00 0.00 73 1018.1
20260504022931 53 263 0.0 0.0 0.00 0.00 0.00 73 1018.1
20260504022915 53 264 0.0 0.0 0.00 0.00 0.00 73 1018.1
20260504022706 53 263 0.0 0.0 0.00 0.00 0.00 73 1018.0
20260504022607 53 263 0.0 0.0 0.00 0.00 0.00 73 1018.1
20260504022508 53 263 0.0 0.0 0.00 0.00 0.00 73 1018.1
20260504022404 54 263 0.0 0.0 0.00 0.00 0.00 73 1018.0
20260504022314 54 264 0.0 0.0 0.00 0.00 0.00 73 1018.0
20260504022305 54 263 0.0 0.0 0.00 0.00 0.00 73 1018.0
20260504022228 54 263 0.0 0.0 0.00 0.00 0.00 72 1018.0
20260504022220 54 263 0.0 0.0 0.00 0.00 0.00 72 1018.1
20260504022003 54 264 0.0 0.0 0.00 0.00 0.00 72 1018.0
20260504021901 54 264 0.0 0.0 0.00 0.00 0.00 72 1018.0
20260504021812 54 264 0.0 0.0 0.00 0.00 0.00 72 1018.0
20260504021800 54 264 0.0 0.0 0.00 0.00 0.00 72 1018.0
20260504021700 54 264 0.0 0.0 0.00 0.00 0.00 72 1018.0
20260504021559 54 263 0.0 0.0 0.00 0.00 0.00 72 1018.0
20260504021458 54 264 0.0 0.0 0.00 0.00 0.00 72 1018.0
20260504021358 54 264 0.0 0.0 0.00 0.00 0.00 72 1018.0
20260504021311 54 264 0.0 0.0 0.00 0.00 0.00 72 1017.9
20260504021257 54 264 0.0 0.0 0.00 0.00 0.00 72 1017.9
20260504021154 54 264 0.0 0.0 0.00 0.00 0.00 72 1018.0
20260504021055 54 264 0.0 0.0 0.00 0.00 0.00 71 1017.9
20260504020955 55 264 0.0 0.0 0.00 0.00 0.00 71 1018.0
20260504020852 55 263 0.0 0.0 0.00 0.00 0.00 71 1018.0
20260504020813 55 263 0.0 0.0 0.00 0.00 0.00 71 1017.9
20260504020752 55 264 0.0 0.0 0.00 0.00 0.00 71 1017.9
20260504020651 55 263 0.0 0.0 0.00 0.00 0.00 71 1017.9
20260504020550 55 264 0.0 0.0 0.00 0.00 0.00 71 1017.9
20260504020450 55 263 0.0 0.0 0.00 0.00 0.00 71 1017.9
20260504020349 55 264 0.0 0.0 0.00 0.00 0.00 71 1017.8
20260504020318 55 264 0.0 0.0 0.00 0.00 0.00 71 1017.8
20260504020312 55 264 0.0 0.0 0.00 0.00 0.00 70 1017.8
20260504020248 55 264 0.0 0.0 0.00 0.00 0.00 70 1017.8
20260504020148 55 264 0.0 0.0 0.00 0.00 0.00 70 1017.8
20260504020047 55 264 0.0 0.0 0.00 0.00 0.00 70 1017.8
20260504015946 55 264 0.0 0.0 0.00 0.00 0.00 70 1017.8
20260504015925 55 264 0.0 0.0 0.00 0.00 0.00 71 1017.8
20260504015745 55 264 0.0 0.0 0.00 0.00 0.00 71 1017.8
20260504015643 55 263 0.0 0.0 0.00 0.00 0.00 71 1017.6
20260504015542 55 263 0.0 0.0 0.00 0.00 0.00 70 1017.6
20260504015506 56 264 0.0 0.0 0.00 0.00 0.00 70 1017.6
20260504015458 55 264 0.0 0.0 0.00 0.00 0.00 70 1017.6
20260504015313 56 264 0.0 0.0 0.00 0.00 0.00 70 1017.6
20260504015241 56 263 0.0 0.0 0.00 0.00 0.00 70 1017.6
20260504015138 56 263 0.0 0.0 0.00 0.00 0.00 69 1017.6
20260504015038 56 264 0.0 0.0 0.00 0.00 0.00 69 1017.6
20260504014939 56 264 0.0 0.0 0.00 0.00 0.00 69 1017.6
20260504014818 56 264 0.0 0.0 0.00 0.00 0.00 68 1017.5
20260504014811 56 264 0.0 0.0 0.00 0.00 0.00 69 1017.6
20260504014737 56 264 0.0 0.0 0.00 0.00 0.00 68 1017.6
20260504014634 56 263 0.0 0.0 0.00 0.00 0.00 68 1017.6
20260504014609 56 263 0.0 0.0 0.00 0.00 0.00 68 1017.5
20260504014558 56 264 0.0 0.0 0.00 0.00 0.00 68 1017.6
20260504014539 56 264 0.0 0.0 0.00 0.00 0.00 68 1017.6
20260504014234 56 263 0.0 0.0 0.00 0.00 0.00 68 1017.5
20260504014131 56 264 0.0 0.0 0.00 0.00 0.00 68 1017.5
20260504014032 56 264 0.0 0.0 0.00 0.00 0.00 68 1017.5
20260504013930 57 263 0.0 0.0 0.00 0.00 0.00 68 1017.5
20260504013829 57 263 0.0 0.0 0.00 0.00 0.00 67 1017.5
20260504013811 57 264 0.0 0.0 0.00 0.00 0.00 67 1017.5
20260504013753 57 264 0.0 0.0 0.00 0.00 0.00 67 1017.5
20260504013744 57 263 0.0 0.0 0.00 0.00 0.00 67 1017.5
20260504013527 57 264 0.0 0.0 0.00 0.00 0.00 67 1017.5
20260504013425 57 264 0.0 0.0 0.00 0.00 0.00 67 1017.5
20260504013324 57 264 0.0 0.0 0.00 0.00 0.00 67 1017.5
20260504013311 57 263 0.0 0.0 0.00 0.00 0.00 66 1017.5
20260504013224 57 263 0.0 0.0 0.00 0.00 0.00 66 1017.4
20260504013146 57 264 0.0 0.0 0.00 0.00 0.00 65 1017.3
20260504013139 57 264 0.0 0.0 0.00 0.00 0.00 65 1017.4
20260504012925 57 264 0.0 0.0 0.00 0.00 0.00 65 1017.3
20260504012825 57 264 0.0 0.0 0.00 0.00 0.00 65 1017.3
20260504012810 57 263 0.0 0.0 0.00 0.00 0.00 65 1017.3
20260504012724 57 264 0.0 0.0 0.00 0.00 0.00 64 1017.4
20260504012710 58 264 0.0 0.0 0.00 0.00 0.00 64 1017.3
20260504012705 58 264 0.0 0.0 0.00 0.00 0.00 64 1017.3
20260504012654 58 264 0.0 0.0 0.00 0.00 0.00 64 1017.3
20260504012320 58 263 0.0 0.0 0.00 0.00 0.00 64 1017.3
20260504012310 58 264 0.0 0.0 0.00 0.00 0.00 64 1017.3
20260504012221 58 263 0.0 0.0 0.00 0.00 0.00 64 1017.2
20260504012120 58 264 0.0 0.0 0.00 0.00 0.00 64 1017.2
20260504012021 58 264 0.0 0.0 0.00 0.00 0.00 64 1017.2
20260504011920 58 263 0.0 0.0 0.00 0.00 0.00 64 1017.2
20260504011809 58 263 0.0 0.0 0.00 0.00 0.00 64 1017.2
20260504011718 58 263 0.0 0.0 0.00 0.00 0.00 64 1017.2
20260504011619 58 264 0.0 0.0 0.00 0.00 0.00 64 1017.2
20260504011546 58 264 0.0 0.0 0.00 0.00 0.00 65 1017.2
20260504011536 58 264 0.0 0.0 0.00 0.00 0.00 65 1017.2
20260504011318 58 263 0.0 0.0 0.00 0.00 0.00 65 1017.1
20260504011311 58 264 0.0 0.0 0.00 0.00 0.00 65 1017.1
20260504011216 58 264 0.0 0.0 0.00 0.00 0.00 65 1017.1
20260504011117 58 264 0.0 0.0 0.00 0.00 0.00 65 1017.2
20260504011016 58 264 0.0 0.0 0.00 0.00 0.00 65 1017.2
20260504010917 58 264 0.0 0.0 0.00 0.00 0.00 65 1017.1
20260504010811 58 264 0.0 0.0 0.00 0.00 0.00 65 1017.2
20260504010717 58 263 0.0 0.0 0.00 0.00 0.00 65 1017.1
20260504010617 58 263 0.0 0.0 0.00 0.00 0.00 65 1017.2
20260504010517 58 264 0.0 0.0 0.00 0.00 0.00 66 1017.1
20260504010416 58 264 0.0 0.0 0.00 0.00 0.00 65 1017.1
20260504010349 58 264 0.0 0.0 0.00 0.00 0.00 65 1017.1
20260504010330 58 263 0.0 0.0 0.00 0.00 0.00 65 1017.1
20260504010142 58 263 0.0 0.0 0.00 0.00 0.00 65 1017.2
20260504010133 58 264 0.0 0.0 0.00 0.00 0.00 65 1017.1
20260504005918 58 263 0.0 0.0 0.00 0.00 0.00 65 1017.2
20260504005819 59 263 0.0 0.0 0.00 0.00 0.00 65 1017.1
20260504005811 59 264 0.0 0.0 0.00 0.00 0.00 65 1017.1
20260504005717 59 264 0.0 0.0 0.00 0.00 0.00 65 1017.1
20260504005617 59 264 0.0 0.0 0.00 0.00 0.00 65 1017.1
20260504005518 59 264 0.0 0.0 0.00 0.00 0.00 64 1017.1
20260504005416 59 264 0.0 0.0 0.00 0.00 0.00 64 1017.1
20260504005318 59 263 0.0 0.0 0.00 0.00 0.00 64 1017.1
20260504005311 59 264 0.0 0.0 0.00 0.00 0.00 64 1017.1
20260504005216 59 264 0.0 0.0 0.00 0.00 0.00 64 1017.1
20260504005117 59 263 0.0 0.0 0.00 0.00 0.00 64 1017.1
20260504005016 59 264 0.0 0.0 0.00 0.00 0.00 64 1017.1
20260504004917 59 264 0.0 0.0 0.00 0.00 0.00 64 1017.1
20260504004809 59 264 0.0 0.0 0.00 0.00 0.00 64 1017.1
20260504004717 60 263 0.0 0.0 0.00 0.00 0.00 64 1017.1
20260504004617 60 263 0.0 0.0 0.00 0.00 0.00 63 1017.1
20260504004517 60 264 0.0 0.0 0.00 0.00 0.00 63 1017.0
20260504004417 60 264 0.0 0.0 0.00 0.00 0.00 63 1017.1
20260504004311 60 263 0.0 0.0 0.00 0.00 0.00 62 1017.1
20260504004307 60 263 0.0 0.0 0.00 0.00 0.00 62 1017.0
20260504004301 60 264 0.0 0.0 0.00 0.00 0.00 62 1017.1
20260504004251 60 264 0.0 0.0 0.00 0.00 0.00 62 1017.1
20260504003916 60 263 0.0 0.0 0.00 0.00 0.00 62 1017.1
20260504003850 60 263 0.0 1.0 0.00 0.00 0.00 62 1017.0
20260504003831 60 264 0.0 1.0 0.00 0.00 0.00 62 1017.1
20260504003616 60 264 0.0 1.0 0.00 0.00 0.00 61 1017.0
20260504003517 61 263 0.0 1.0 0.00 0.00 0.00 62 1017.0
20260504003416 61 263 0.0 1.0 0.00 0.00 0.00 60 1016.9
20260504003319 61 264 0.0 1.0 0.00 0.00 0.00 60 1017.0
20260504003310 61 263 0.0 1.0 0.00 0.00 0.00 60 1017.0
20260504003216 61 264 0.0 1.0 0.00 0.00 0.00 60 1016.9
20260504003116 61 264 0.0 1.0 0.00 0.00 0.00 60 1016.9
20260504003017 61 264 0.0 1.0 0.00 0.00 0.00 60 1016.9
20260504002916 61 263 0.0 1.0 0.00 0.00 0.00 60 1016.9
20260504002825 62 264 0.0 0.0 0.00 0.00 0.00 58 1016.9
20260504002811 61 264 0.0 0.0 0.00 0.00 0.00 60 1016.9
20260504002717 62 264 0.0 0.0 0.00 0.00 0.00 60 1016.9
20260504002617 62 263 0.0 0.0 0.00 0.00 0.00 59 1017.0
20260504002603 62 264 0.0 0.0 0.00 0.00 0.00 59 1016.9
20260504002550 62 264 0.0 0.0 0.00 0.00 0.00 60 1016.9
20260504002418 62 264 0.0 0.0 0.00 0.00 0.00 58 1016.9
20260504002215 62 264 0.0 0.0 0.00 0.00 0.00 58 1016.9
20260504002118 62 264 0.0 0.0 0.00 0.00 0.00 58 1016.9
20260504002042 63 264 0.0 0.0 0.00 0.00 0.00 57 1016.9
20260504002032 62 263 0.0 0.0 0.00 0.00 0.00 57 1016.9
20260504001809 63 264 0.0 0.0 0.00 0.00 0.00 57 1016.9
20260504001717 63 263 0.0 0.0 0.00 0.00 0.00 57 1016.9
20260504001641 63 264 0.0 0.0 0.00 0.00 0.00 57 1016.9
20260504001633 63 264 0.0 0.0 0.00 0.00 0.00 56 1016.9
20260504001416 63 264 0.0 0.0 0.00 0.00 0.00 57 1016.8
20260504001310 63 264 0.0 0.0 0.00 0.00 0.00 57 1016.8
20260504001216 64 264 0.0 0.0 0.00 0.00 0.00 56 1016.8
20260504001117 64 264 0.0 0.0 0.00 0.00 0.00 55 1016.8
20260504001017 64 264 0.0 0.0 0.00 0.00 0.00 55 1016.8
20260504000918 64 264 0.0 0.0 0.00 0.00 0.00 54 1016.8
20260504000811 64 264 0.0 0.0 0.00 0.00 0.00 54 1016.9
20260504000716 64 263 0.0 0.0 0.00 0.00 0.00 54 1016.8
20260504000616 64 264 0.0 0.0 0.00 0.00 0.00 53 1016.8
20260504000517 64 264 0.0 0.0 0.00 0.00 0.00 53 1016.8
20260504000416 64 264 0.0 0.0 0.00 0.00 0.00 53 1016.8
20260504000318 64 264 0.0 0.0 0.00 0.00 0.00 53 1016.8
20260504000309 64 263 0.0 0.0 0.00 0.00 0.00 53 1016.8
20260504000215 64 264 0.0 0.0 0.00 0.00 0.00 52 1016.8
20260504000142 65 264 0.0 0.0 0.00 0.00 0.00 52 1016.8
20260504000134 64 264 0.0 0.0 0.00 0.00 0.00 52 1016.8
20260503235917 65 264 0.0 0.0 0.00 0.00 0.00 52 1016.8
20260503235818 65 264 0.0 0.0 0.00 0.00 0.00 51 1016.8
20260503235810 65 263 0.0 0.0 0.00 0.00 0.00 51 1016.8
20260503235741 65 264 0.0 0.0 0.00 0.00 0.00 52 1016.8
20260503235732 65 263 0.0 0.0 0.00 0.00 0.00 52 1016.8
20260503235516 65 264 0.0 0.0 0.00 0.00 0.00 53 1016.8
20260503235416 65 264 0.0 0.0 0.00 0.00 0.00 51 1016.8
20260503235310 65 264 0.0 0.0 0.00 0.00 0.00 51 1016.7
20260503235216 65 264 0.0 0.0 0.00 0.00 0.00 52 1016.7
20260503235117 65 264 0.0 0.0 0.00 0.00 0.00 52 1016.8
20260503235024 65 264 0.0 0.0 0.00 0.00 0.00 52 1016.8
20260503234917 65 264 0.0 0.0 0.00 0.00 0.00 52 1016.8
20260503234811 65 264 0.0 0.0 0.00 0.00 0.00 54 1016.8
20260503234717 65 264 0.0 0.0 0.00 0.00 0.00 53 1016.8
20260503234616 66 264 0.0 0.0 0.00 0.00 0.00 52 1016.8
20260503234517 66 264 0.0 0.0 0.00 0.00 0.00 52 1016.8
20260503234416 66 264 0.0 0.0 0.00 0.00 0.00 53 1016.8
20260503234318 66 265 0.0 0.0 0.00 0.00 0.00 53 1016.8
20260503234309 66 264 0.0 0.0 0.00 0.00 0.00 52 1016.8
20260503234217 66 264 0.0 0.0 0.00 0.00 0.00 52 1016.8
20260503234116 66 264 0.0 0.0 0.00 0.00 0.00 51 1016.8
20260503234016 66 264 0.0 1.0 0.00 0.00 0.00 50 1016.8
20260503233917 66 264 0.0 1.0 0.00 0.00 0.00 51 1016.8
20260503233809 66 264 0.0 1.0 0.00 0.00 0.00 50 1016.8
20260503233714 66 264 0.0 1.0 0.00 0.00 0.00 51 1016.8
20260503233614 66 264 0.0 1.0 0.00 0.00 0.00 48 1016.8
20260503233515 66 264 0.0 1.0 0.00 0.00 0.00 48 1016.8
20260503233415 66 264 0.0 1.0 0.00 0.00 0.00 48 1016.8
20260503233317 66 264 0.0 1.0 0.00 0.00 0.00 48 1016.7
20260503233308 66 263 0.0 1.0 0.00 0.00 0.00 48 1016.7
20260503233213 66 264 0.0 1.0 0.00 0.00 0.00 48 1016.7
20260503233115 66 264 0.0 1.0 0.00 0.00 0.00 48 1016.7
20260503233014 66 263 0.0 1.0 0.00 0.00 0.00 48 1016.7
20260503232914 66 264 0.0 1.0 0.00 0.00 0.00 50 1016.6
20260503232816 66 264 0.0 1.0 0.00 0.00 0.00 50 1016.7
20260503232809 66 263 0.0 1.0 0.00 0.00 0.00 50 1016.7
20260503232715 67 264 0.0 1.0 0.00 0.00 0.00 50 1016.6
20260503232702 67 264 0.0 1.0 0.00 0.00 0.00 47 1016.6
20260503232658 67 272 0.0 0.0 0.00 0.00 0.00 47 1016.7
20260503232646 67 264 0.0 1.0 0.00 0.00 0.00 47 1016.6
20260503232308 67 272 0.0 0.0 0.00 0.00 0.00 48 1016.6
20260503232211 67 272 0.0 0.0 0.00 0.00 0.00 47 1016.7
20260503232110 67 272 0.0 0.0 0.00 0.00 0.00 49 1016.7
20260503232009 67 272 0.0 0.0 0.00 0.00 0.00 50 1016.7
20260503231909 67 272 0.0 1.0 0.00 0.00 0.00 49 1016.7
20260503231806 67 272 0.0 1.0 0.00 0.00 0.00 48 1016.7
20260503231707 67 272 0.0 1.0 0.00 0.00 0.00 48 1016.8
20260503231604 67 272 0.0 1.0 0.00 0.00 0.00 47 1016.7
20260503231530 67 272 0.0 2.0 0.00 0.00 0.00 48 1016.8
20260503231521 67 272 0.0 1.0 0.00 0.00 0.00 47 1016.8
20260503231308 67 272 0.0 2.0 0.00 0.00 0.00 48 1016.8
20260503231303 67 272 0.0 2.0 0.00 0.00 0.00 48 1016.8
20260503231159 67 272 0.0 2.0 0.00 0.00 0.00 47 1016.8
20260503231150 67 272 0.0 2.0 0.00 0.00 0.00 47 1016.9
20260503231145 67 272 0.0 2.0 0.00 0.00 0.00 47 1016.8
20260503231134 67 272 0.0 2.0 0.00 0.00 0.00 47 1016.9
20260503230807 67 279 0.0 2.0 0.00 0.00 0.00 46 1016.9
20260503230757 67 279 0.0 2.0 0.00 0.00 0.00 47 1016.9
20260503230659 67 279 0.0 2.0 0.00 0.00 0.00 47 1016.8
20260503230556 67 279 0.0 2.0 0.00 0.00 0.00 47 1016.9
20260503230458 67 274 0.0 2.0 0.00 0.00 0.00 47 1016.9
20260503230356 67 278 0.0 1.0 0.00 0.00 0.00 48 1016.9
20260503230308 67 275 0.0 1.0 0.00 0.00 0.00 47 1016.8
20260503230255 67 276 0.0 1.0 0.00 0.00 0.00 47 1016.8
20260503230155 67 275 0.0 1.0 0.00 0.00 0.00 47 1016.9
20260503230053 67 276 0.0 1.0 0.00 0.00 0.00 48 1016.8
20260503225953 67 271 0.0 1.0 0.00 0.00 0.00 48 1016.8
20260503225852 67 269 0.0 1.0 0.00 0.00 0.00 47 1016.8
20260503225807 67 273 0.0 1.0 0.00 0.00 0.00 47 1016.9
20260503225750 67 273 0.0 2.0 0.00 0.00 0.00 47 1016.9
20260503225648 67 241 0.0 2.0 0.00 0.00 0.00 46 1016.9
20260503225547 67 241 0.0 2.0 0.00 0.00 0.00 46 1016.9
20260503225516 67 254 0.0 2.0 0.00 0.00 0.00 46 1016.9
20260503225505 67 241 0.0 2.0 0.00 0.00 0.00 46 1016.9
20260503225309 67 280 0.0 2.0 0.00 0.00 0.00 46 1016.9
20260503225246 67 280 0.0 2.0 0.00 0.00 0.00 45 1016.9
20260503225208 67 280 0.0 2.0 0.00 0.00 0.00 46 1016.9
20260503225201 67 280 0.0 2.0 0.00 0.00 0.00 45 1016.9
20260503225011 67 302 0.0 2.0 0.00 0.00 0.00 46 1016.9
20260503225001 67 280 0.0 2.0 0.00 0.00 0.00 46 1016.9
20260503224805 67 302 0.0 2.0 0.00 0.00 0.00 46 1016.9
20260503224741 68 273 0.0 1.0 0.00 0.00 0.00 46 1016.9
20260503224641 68 250 0.0 1.0 0.00 0.00 0.00 45 1016.9
20260503224540 68 250 0.0 1.0 0.00 0.00 0.00 45 1016.9
20260503224503 68 250 0.0 1.0 0.00 0.00 0.00 44 1016.9
20260503224454 68 250 0.0 1.0 0.00 0.00 0.00 44 1016.9
20260503224307 68 250 0.0 1.0 0.00 0.00 0.00 45 1016.9
20260503224238 68 259 0.0 1.0 0.00 0.00 0.00 45 1016.9
20260503224139 68 269 0.0 1.0 0.00 0.00 0.00 46 1016.9
20260503224037 68 269 0.0 1.0 0.00 0.00 0.00 46 1017.0
20260503223936 68 269 0.0 1.0 0.00 0.00 0.00 45 1016.9
20260503223836 68 268 0.0 1.0 0.00 0.00 0.00 45 1016.9
20260503223807 68 267 0.0 1.0 0.00 0.00 0.00 45 1016.9
20260503223735 68 268 0.0 1.0 0.00 0.00 0.00 45 1016.9
20260503223632 68 268 0.0 1.0 0.00 0.00 0.00 44 1017.0
20260503223533 68 267 0.0 1.0 0.00 0.00 0.00 46 1016.9
20260503223432 68 256 0.0 1.0 0.00 0.00 0.00 45 1016.9
20260503223332 68 257 0.0 1.0 0.00 0.00 0.00 46 1016.9
20260503223305 68 257 0.0 1.0 0.00 0.00 0.00 46 1017.0
20260503223256 68 257 0.0 1.0 0.00 0.00 0.00 46 1017.0
20260503223248 68 256 0.0 1.0 0.00 0.00 0.00 45 1017.0
20260503223028 68 254 0.0 1.0 0.00 0.00 0.00 45 1016.9
20260503222926 68 264 0.0 1.0 0.00 0.00 0.00 44 1017.0
20260503222803 68 290 0.0 1.0 0.00 0.00 0.00 44 1017.0
20260503222749 68 266 0.0 1.0 0.00 0.00 0.00 44 1017.1
20260503222740 68 266 0.0 1.0 0.00 0.00 0.00 44 1017.0
20260503222525 68 286 0.0 2.0 0.00 0.00 0.00 45 1017.1
20260503222451 68 118 0.0 2.0 0.00 0.00 0.00 44 1017.1
20260503222441 68 134 0.0 2.0 0.00 0.00 0.00 44 1017.0
20260503222311 68 99 0.0 2.0 0.00 0.00 0.00 42 1017.1
20260503222304 68 118 0.0 2.0 0.00 0.00 0.00 44 1017.0
20260503222225 68 134 0.0 2.0 0.00 0.00 0.00 44 1017.0
20260503222124 68 127 0.0 2.0 0.00 0.00 0.00 43 1017.1
20260503222106 68 127 0.0 2.0 0.00 0.00 0.00 42 1017.1
20260503222100 68 139 0.0 1.0 0.00 0.00 0.00 41 1017.0
20260503222050 68 126 0.0 2.0 0.00 0.00 0.00 43 1017.1
20260503222031 68 126 0.0 2.0 0.00 0.00 0.00 43 1017.0
20260503221723 68 99 0.0 2.0 0.00 0.00 0.00 43 1017.1
20260503221624 68 96 0.0 2.0 0.00 0.00 0.00 43 1017.1
20260503221523 68 310 0.0 2.0 0.00 0.00 0.00 44 1017.0
20260503221514 68 138 0.0 1.0 0.00 0.00 0.00 41 1017.0
20260503221459 68 137 0.0 1.0 0.00 0.00 0.00 42 1017.1
20260503221443 68 138 0.0 1.0 0.00 0.00 0.00 41 1017.0
20260503221120 68 123 0.0 1.0 0.00 0.00 0.00 41 1017.1
20260503221019 68 123 0.0 1.0 0.00 0.00 0.00 41 1017.1
20260503220921 68 137 0.0 1.0 0.00 0.00 0.00 40 1017.1
20260503220820 69 117 0.0 1.0 0.00 0.00 0.00 41 1017.1
20260503220810 69 238 0.0 2.0 0.00 0.00 0.00 42 1017.2
20260503220804 69 119 0.0 1.0 0.00 0.00 0.00 41 1017.1
20260503220721 69 194 0.0 1.0 0.00 0.00 0.00 41 1017.1
20260503220618 69 194 0.0 1.0 0.00 0.00 0.00 41 1017.1
20260503220602 69 249 0.0 2.0 0.00 0.00 0.00 42 1017.2
20260503220548 69 193 0.0 2.0 0.00 0.00 0.00 40 1017.1
20260503220530 69 194 0.0 2.0 0.00 0.00 0.00 41 1017.1
20260503220218 69 146 0.0 2.0 0.00 0.00 0.00 42 1017.2
20260503220117 69 117 0.0 2.0 0.00 0.00 0.00 41 1017.2
20260503220017 69 119 0.0 2.0 0.00 0.00 0.00 41 1017.1
20260503215918 69 248 0.0 2.0 0.00 0.00 0.00 41 1017.1
20260503215818 69 266 0.0 2.0 0.00 0.00 0.00 40 1017.1
20260503215801 69 274 0.0 2.0 0.00 0.00 0.00 40 1017.1
20260503215718 69 274 0.0 2.0 0.00 0.00 0.00 40 1017.1
20260503215619 69 271 0.0 3.0 0.00 0.00 0.00 38 1017.1
20260503215516 69 271 0.0 3.0 0.00 0.00 0.00 40 1017.1
20260503215415 69 161 0.0 3.0 0.00 0.00 0.00 40 1017.1
20260503215308 69 281 0.0 3.0 0.00 0.00 0.00 39 1017.2
20260503215304 69 160 0.0 3.0 0.00 0.00 0.00 40 1017.1
20260503215216 69 103 0.0 3.0 0.00 0.00 0.00 40 1017.2
20260503215114 69 103 0.0 3.0 0.00 0.00 0.00 39 1017.2
20260503215015 69 103 0.0 3.0 0.00 0.00 0.00 39 1017.2
20260503214937 69 256 0.0 2.0 0.00 0.00 0.00 38 1017.2
20260503214928 69 279 0.0 3.0 0.00 0.00 0.00 39 1017.2
20260503214911 69 281 0.0 3.0 0.00 0.00 0.00 39 1017.2
20260503214713 69 308 0.0 3.0 0.00 0.00 0.00 39 1017.1
20260503214610 69 276 0.0 2.0 0.00 0.00 0.00 39 1017.1
20260503214508 69 263 0.0 2.0 0.00 0.00 0.00 39 1017.2
20260503214428 69 133 0.0 2.0 0.00 0.00 0.00 38 1017.2
20260503214410 69 256 0.0 2.0 0.00 0.00 0.00 38 1017.2
20260503214207 69 244 0.0 2.0 0.00 0.00 0.00 37 1017.2
20260503214106 69 241 0.0 2.0 0.00 0.00 0.00 37 1017.2
20260503214005 69 238 0.0 2.0 0.00 0.00 0.00 38 1017.2
20260503213905 69 238 0.0 2.0 0.00 0.00 0.00 38 1017.2
20260503213815 70 113 0.0 2.0 0.00 0.00 0.00 38 1017.2
20260503213805 69 238 0.0 2.0 0.00 0.00 0.00 38 1017.2
20260503213704 69 244 0.0 2.0 0.00 0.00 0.00 39 1017.2
20260503213605 70 287 0.0 1.0 0.00 0.00 0.00 38 1017.2
20260503213504 70 322 0.0 1.0 0.00 0.00 0.00 39 1017.2
20260503213425 70 112 0.0 1.0 0.00 0.00 0.00 38 1017.2
20260503213409 70 113 0.0 2.0 0.00 0.00 0.00 38 1017.2
20260503213203 70 143 0.0 2.0 0.00 0.00 0.00 37 1017.2
20260503213152 70 246 0.0 2.0 0.00 0.00 0.00 38 1017.2
20260503213148 70 249 0.0 2.0 0.00 0.00 0.00 39 1017.2
20260503213135 70 99 0.0 2.0 0.00 0.00 0.00 39 1017.2
20260503212805 70 288 0.0 2.0 0.00 0.00 0.00 38 1017.2
20260503212800 70 288 0.0 2.0 0.00 0.00 0.00 38 1017.2
20260503212701 70 144 0.0 2.0 0.00 0.00 0.00 38 1017.3
20260503212559 70 350 0.0 2.0 0.00 0.00 0.00 38 1017.3
20260503212457 70 350 0.0 2.0 0.00 0.00 0.00 37 1017.3
20260503212400 70 40 1.0 2.0 0.00 0.00 0.00 35 1017.4
20260503212355 70 350 0.0 2.0 0.00 0.00 0.00 36 1017.3
20260503212301 70 12 0.0 2.0 0.00 0.00 0.00 36 1017.4
20260503212256 70 61 0.0 2.0 0.00 0.00 0.00 36 1017.4
20260503212156 70 70 0.0 2.0 0.00 0.00 0.00 36 1017.4
20260503212056 70 317 0.0 2.0 0.00 0.00 0.00 36 1017.4
20260503212048 70 40 1.0 2.0 0.00 0.00 0.00 35 1017.4
20260503212033 70 276 1.0 2.0 0.00 0.00 0.00 36 1017.4
20260503212015 70 330 1.0 2.0 0.00 0.00 0.00 36 1017.4
20260503211655 70 40 1.0 2.0 0.00 0.00 0.00 35 1017.4
20260503211554 70 277 1.0 2.0 0.00 0.00 0.00 35 1017.3
20260503211453 71 284 1.0 2.0 0.00 0.00 0.00 36 1017.4
20260503211404 72 245 0.0 1.0 0.00 0.00 0.00 35 1017.4
20260503211355 71 279 0.0 2.0 0.00 0.00 0.00 35 1017.4
20260503211328 71 15 0.0 2.0 0.00 0.00 0.00 34 1017.3
20260503211317 71 284 0.0 2.0 0.00 0.00 0.00 35 1017.3
20260503211312 71 284 0.0 2.0 0.00 0.00 0.00 35 1017.3
20260503211055 71 86 0.0 2.0 0.00 0.00 0.00 35 1017.4
20260503211016 71 273 0.0 2.0 0.00 0.00 0.00 35 1017.4
20260503210856 71 261 0.0 2.0 0.00 0.00 0.00 35 1017.4
20260503210848 72 304 0.0 1.0 0.00 0.00 0.00 34 1017.4
20260503210834 71 274 0.0 2.0 0.00 0.00 0.00 35 1017.3
20260503210828 71 234 0.0 2.0 0.00 0.00 0.00 35 1017.3
20260503210710 72 245 0.0 1.0 0.00 0.00 0.00 35 1017.4
20260503210702 72 271 0.0 2.0 0.00 0.00 0.00 34 1017.4
20260503210645 72 304 0.0 2.0 0.00 0.00 0.00 33 1017.4
20260503210511 72 284 0.0 1.0 0.00 0.00 0.00 35 1017.4
20260503210145 72 244 0.0 1.0 0.00 0.00 0.00 34 1017.4
20260503210045 72 241 0.0 1.0 0.00 0.00 0.00 35 1017.4
20260503210038 72 250 0.0 2.0 0.00 0.00 0.00 36 1017.5
20260503210031 72 269 0.0 1.0 0.00 0.00 0.00 35 1017.5
20260503210018 72 272 0.0 1.0 0.00 0.00 0.00 36 1017.4
20260503210001 72 272 0.0 1.0 0.00 0.00 0.00 37 1017.5
20260503205947 72 271 0.0 1.0 0.00 0.00 0.00 35 1017.5
20260503205727 72 274 0.0 2.0 0.00 0.00 0.00 36 1017.5
20260503205716 72 269 0.0 2.0 0.00 0.00 0.00 35 1017.5
20260503205339 72 274 0.0 2.0 0.00 0.00 0.00 37 1017.5
20260503205300 72 272 1.0 2.0 0.00 0.00 0.00 36 1017.6
20260503205240 72 241 1.0 2.0 0.00 0.00 0.00 36 1017.6
20260503205139 72 271 1.0 2.0 0.00 0.00 0.00 38 1017.6
20260503205039 72 158 1.0 2.0 0.00 0.00 0.00 37 1017.6
20260503205002 72 123 1.0 6.0 0.00 0.00 0.00 38 1017.6
20260503204952 72 161 1.0 2.0 0.00 0.00 0.00 38 1017.6
20260503204800 72 214 1.0 6.0 0.00 0.00 0.00 38 1017.8
20260503204734 72 181 1.0 6.0 0.00 0.00 0.00 38 1017.8
20260503204635 72 249 1.0 6.0 0.00 0.00 0.00 37 1017.8
20260503204534 72 252 1.0 6.0 0.00 0.00 0.00 37 1017.6
20260503204456 72 279 0.0 6.0 0.00 0.00 0.00 38 1017.6
20260503204448 72 287 0.0 6.0 0.00 0.00 0.00 37 1017.6
20260503204300 73 290 0.0 6.0 0.00 0.00 0.00 38 1017.6
20260503204230 73 274 0.0 6.0 0.00 0.00 0.00 38 1017.6
20260503204130 73 301 0.0 6.0 0.00 0.00 0.00 38 1017.8
20260503204031 73 271 0.0 6.0 0.00 0.00 0.00 38 1017.8
20260503203930 73 263 1.0 6.0 0.00 0.00 0.00 39 1017.8
20260503203827 73 242 0.0 3.0 0.00 0.00 0.00 40 1017.8
20260503203800 72 273 0.0 3.0 0.00 0.00 0.00 40 1017.8
20260503203729 72 257 0.0 3.0 0.00 0.00 0.00 40 1017.8
20260503203626 72 257 0.0 3.0 0.00 0.00 0.00 41 1017.8
20260503203524 72 276 0.0 3.0 0.00 0.00 0.00 41 1017.8
20260503203425 72 140 0.0 3.0 0.00 0.00 0.00 39 1017.9
20260503203324 72 112 1.0 3.0 0.00 0.00 0.00 40 1017.9
20260503203300 72 117 0.0 3.0 0.00 0.00 0.00 40 1017.9
20260503203224 72 128 0.0 3.0 0.00 0.00 0.00 40 1017.9
20260503203125 72 121 0.0 3.0 0.00 0.00 0.00 39 1017.9
20260503203024 72 78 0.0 3.0 0.00 0.00 0.00 39 1017.9
20260503202924 72 120 0.0 3.0 0.00 0.00 0.00 40 1018.0
20260503202823 72 309 0.0 3.0 0.00 0.00 0.00 39 1018.0
20260503202800 72 309 0.0 3.0 0.00 0.00 0.00 39 1018.0
20260503202724 72 84 0.0 3.0 0.00 0.00 0.00 39 1018.0
20260503202622 72 241 0.0 5.0 0.00 0.00 0.00 39 1018.0
20260503202521 72 276 1.0 5.0 0.00 0.00 0.00 39 1018.0
20260503202426 72 287 1.0 5.0 0.00 0.00 0.00 38 1018.1
20260503202421 72 241 0.0 5.0 0.00 0.00 0.00 39 1018.1
20260503202414 72 286 1.0 5.0 0.00 0.00 0.00 38 1018.1
20260503202359 72 300 1.0 5.0 0.00 0.00 0.00 39 1018.1
20260503202348 72 285 1.0 5.0 0.00 0.00 0.00 39 1018.1
20260503202022 72 287 1.0 5.0 0.00 0.00 0.00 39 1018.1
20260503201919 72 274 1.0 5.0 0.00 0.00 0.00 39 1018.1
20260503201821 72 250 1.0 5.0 0.00 0.00 0.00 39 1018.1
20260503201757 72 144 1.0 5.0 0.00 0.00 0.00 38 1018.1
20260503201718 72 184 1.0 5.0 0.00 0.00 0.00 37 1018.2
20260503201618 72 277 1.0 3.0 0.00 0.00 0.00 37 1018.2
20260503201543 72 207 1.0 3.0 0.00 0.00 0.00 38 1018.2
20260503201534 72 273 1.0 3.0 0.00 0.00 0.00 40 1018.2
20260503201316 72 194 1.0 3.0 0.00 0.00 0.00 39 1018.2
20260503201258 72 153 1.0 3.0 0.00 0.00 0.00 39 1018.2
20260503201242 72 242 1.0 3.0 0.00 0.00 0.00 37 1018.3
20260503201234 72 71 1.0 3.0 0.00 0.00 0.00 39 1018.2
20260503201016 73 244 1.0 3.0 0.00 0.00 0.00 37 1018.3
20260503200915 73 272 1.0 3.0 0.00 0.00 0.00 39 1018.3
20260503200817 73 134 1.0 3.0 0.00 0.00 0.00 39 1018.3
20260503200758 73 133 1.0 3.0 0.00 0.00 0.00 39 1018.3
20260503200716 73 98 1.0 3.0 0.00 0.00 0.00 37 1018.3
20260503200616 73 77 1.0 3.0 0.00 0.00 0.00 39 1018.4
20260503200515 73 331 1.0 2.0 0.00 0.00 0.00 37 1018.4
20260503200415 73 332 1.0 2.0 0.00 0.00 0.00 39 1018.4
20260503200316 72 229 1.0 2.0 0.00 0.00 0.00 37 1018.4
20260503200257 72 229 1.0 2.0 0.00 0.00 0.00 37 1018.4
20260503200214 72 229 1.0 3.0 0.00 0.00 0.00 38 1018.4
20260503200205 72 121 1.0 3.0 0.00 0.00 0.00 37 1018.5
20260503200201 72 241 1.0 3.0 0.00 0.00 0.00 36 1018.5
20260503200148 72 123 1.0 3.0 0.00 0.00 0.00 37 1018.4
20260503195811 72 109 1.0 3.0 0.00 0.00 0.00 38 1018.5
20260503195758 72 111 1.0 3.0 0.00 0.00 0.00 38 1018.5
20260503195710 72 168 0.0 3.0 0.00 0.00 0.00 38 1018.5
20260503195608 72 256 1.0 3.0 0.00 0.00 0.00 36 1018.6
20260503195508 72 271 1.0 3.0 0.00 0.00 0.00 37 1018.5
20260503195407 71 165 1.0 3.0 0.00 0.00 0.00 37 1018.6
20260503195308 71 179 1.0 3.0 0.00 0.00 0.00 37 1018.6
20260503195258 71 156 1.0 3.0 0.00 0.00 0.00 37 1018.6
20260503195232 71 175 0.0 4.0 0.00 0.00 0.00 37 1018.7
20260503195223 71 133 1.0 3.0 0.00 0.00 0.00 39 1018.7
20260503195006 71 213 0.0 4.0 0.00 0.00 0.00 38 1018.6
20260503194904 71 253 0.0 4.0 0.00 0.00 0.00 36 1018.7
20260503194811 71 203 0.0 4.0 0.00 0.00 0.00 36 1018.7
20260503194806 71 238 0.0 4.0 0.00 0.00 0.00 36 1018.7
20260503194757 71 238 0.0 4.0 0.00 0.00 0.00 36 1018.7
20260503194703 71 268 0.0 4.0 0.00 0.00 0.00 37 1018.7
20260503194559 71 275 0.0 4.0 0.00 0.00 0.00 36 1018.7
20260503194459 71 266 0.0 4.0 0.00 0.00 0.00 39 1018.7
20260503194422 71 276 0.0 4.0 0.00 0.00 0.00 37 1018.7
20260503194405 71 203 0.0 4.0 0.00 0.00 0.00 36 1018.7
20260503194158 71 127 1.0 6.0 0.00 0.00 0.00 35 1018.8
20260503194056 71 281 1.0 6.0 0.00 0.00 0.00 34 1018.8
20260503193958 71 281 1.0 6.0 0.00 0.00 0.00 36 1018.8
20260503193855 71 290 1.0 6.0 0.00 0.00 0.00 36 1018.9
20260503193801 71 254 1.0 6.0 0.00 0.00 0.00 38 1018.9
20260503193756 71 268 1.0 6.0 0.00 0.00 0.00 38 1018.9
20260503193653 71 267 1.0 6.0 0.00 0.00 0.00 36 1018.9
20260503193554 71 294 1.0 6.0 0.00 0.00 0.00 35 1019.0
20260503193454 72 294 1.0 6.0 0.00 0.00 0.00 37 1019.0
20260503193427 71 338 1.0 6.0 0.00 0.00 0.00 36 1019.0
20260503193416 71 309 1.0 6.0 0.00 0.00 0.00 35 1019.0
20260503193359 71 346 1.0 6.0 0.00 0.00 0.00 37 1019.0
20260503193153 71 114 1.0 5.0 0.00 0.00 0.00 38 1019.1
20260503193117 71 298 1.0 4.0 0.00 0.00 0.00 37 1019.0
20260503193109 71 263 1.0 4.0 0.00 0.00 0.00 37 1019.0
20260503192849 71 329 1.0 4.0 0.00 0.00 0.00 36 1019.0
20260503192757 71 337 1.0 4.0 0.00 0.00 0.00 36 1019.0
20260503192750 71 99 1.0 4.0 0.00 0.00 0.00 36 1019.0
20260503192650 71 118 1.0 5.0 0.00 0.00 0.00 36 1019.0
20260503192548 71 128 1.0 5.0 0.00 0.00 0.00 38 1019.1
20260503192448 71 284 1.0 5.0 0.00 0.00 0.00 37 1019.1
20260503192349 71 265 1.0 5.0 0.00 0.00 0.00 36 1019.2
20260503192318 71 279 1.0 5.0 0.00 0.00 0.00 36 1019.2
20260503192308 71 263 1.0 5.0 0.00 0.00 0.00 37 1019.2
20260503192305 71 257 1.0 5.0 0.00 0.00 0.00 37 1019.2
20260503192112 71 114 1.0 5.0 0.00 0.00 0.00 37 1019.3
20260503192104 71 286 1.0 5.0 0.00 0.00 0.00 36 1019.3
20260503191845 71 126 1.0 5.0 0.00 0.00 0.00 35 1019.3
20260503191755 71 123 1.0 5.0 0.00 0.00 0.00 34 1019.3
20260503191742 71 137 1.0 5.0 0.00 0.00 0.00 34 1019.3
20260503191643 71 209 0.0 3.0 0.00 0.00 0.00 34 1019.4
20260503191542 71 265 1.0 3.0 0.00 0.00 0.00 36 1019.3
20260503191442 71 260 0.0 3.0 0.00 0.00 0.00 36 1019.3
20260503191342 71 258 0.0 3.0 0.00 0.00 0.00 38 1019.4
20260503191255 71 198 0.0 3.0 0.00 0.00 0.00 41 1019.3
20260503191242 71 114 0.0 3.0 0.00 0.00 0.00 41 1019.3
20260503191143 71 284 1.0 3.0 0.00 0.00 0.00 39 1019.3
20260503191042 71 238 1.0 3.0 0.00 0.00 0.00 39 1019.3
20260503190940 71 256 1.0 3.0 0.00 0.00 0.00 40 1019.4
20260503190839 71 266 1.0 3.0 0.00 0.00 0.00 39 1019.3
20260503190814 71 258 1.0 3.0 0.00 0.00 0.00 40 1019.3
20260503190805 71 266 1.0 3.0 0.00 0.00 0.00 39 1019.4
20260503190757 71 280 1.0 3.0 0.00 0.00 0.00 39 1019.4
20260503190540 71 241 1.0 3.0 0.00 0.00 0.00 40 1019.3
20260503190508 71 273 1.0 3.0 0.00 0.00 0.00 39 1019.3
20260503190457 71 281 1.0 3.0 0.00 0.00 0.00 39 1019.3
20260503190255 71 234 1.0 3.0 0.00 0.00 0.00 39 1019.3
20260503190238 71 273 1.0 3.0 0.00 0.00 0.00 39 1019.3
20260503190202 71 248 1.0 4.0 0.00 0.00 0.00 42 1019.3
20260503190154 71 260 1.0 4.0 0.00 0.00 0.00 39 1019.3
20260503185936 71 286 1.0 4.0 0.00 0.00 0.00 42 1019.3
20260503185836 71 153 1.0 4.0 0.00 0.00 0.00 40 1019.3
20260503185756 71 141 0.0 4.0 0.00 0.00 0.00 40 1019.4
20260503185734 71 119 0.0 4.0 0.00 0.00 0.00 41 1019.4
20260503185633 71 110 0.0 4.0 0.00 0.00 0.00 42 1019.4
20260503185538 71 245 0.0 4.0 0.00 0.00 0.00 43 1019.4
20260503185432 71 265 0.0 4.0 0.00 0.00 0.00 41 1019.4
20260503185331 71 234 0.0 4.0 0.00 0.00 0.00 42 1019.4
20260503185252 71 218 0.0 4.0 0.00 0.00 0.00 42 1019.5
20260503185230 71 241 0.0 4.0 0.00 0.00 0.00 39 1019.5
20260503185129 71 234 0.0 3.0 0.00 0.00 0.00 40 1019.5
20260503185054 71 94 0.0 3.0 0.00 0.00 0.00 39 1019.5
20260503185046 71 106 0.0 3.0 0.00 0.00 0.00 39 1019.5
20260503184857 71 204 0.0 3.0 0.00 0.00 0.00 40 1019.6
20260503184847 71 40 0.0 3.0 0.00 0.00 0.00 40 1019.5
20260503184835 71 49 0.0 3.0 0.00 0.00 0.00 40 1019.6
20260503184648 71 256 0.0 3.0 0.00 0.00 0.00 40 1019.6
20260503184641 71 271 0.0 3.0 0.00 0.00 0.00 40 1019.6
20260503184423 71 265 0.0 3.0 0.00 0.00 0.00 43 1019.6
20260503184324 70 238 0.0 3.0 0.00 0.00 0.00 42 1019.6
20260503184254 70 263 0.0 3.0 0.00 0.00 0.00 39 1019.6
20260503184221 71 261 0.0 3.0 0.00 0.00 0.00 39 1019.6
20260503184124 71 269 0.0 3.0 0.00 0.00 0.00 39 1019.7
20260503184021 71 232 0.0 3.0 0.00 0.00 0.00 41 1019.7
20260503183923 71 267 0.0 3.0 0.00 0.00 0.00 42 1019.7
20260503183824 71 42 0.0 3.0 0.00 0.00 0.00 43 1019.8
20260503183758 71 252 1.0 3.0 0.00 0.00 0.00 42 1019.8
20260503183722 71 248 1.0 3.0 0.00 0.00 0.00 42 1019.8
20260503183622 70 285 1.0 3.0 0.00 0.00 0.00 42 1019.8
20260503183523 70 249 1.0 3.0 0.00 0.00 0.00 44 1019.7
20260503183422 70 241 1.0 3.0 0.00 0.00 0.00 45 1019.8
20260503183323 70 286 1.0 3.0 0.00 0.00 0.00 44 1019.8
20260503183255 70 260 1.0 3.0 0.00 0.00 0.00 43 1019.8
20260503183221 70 257 1.0 3.0 0.00 0.00 0.00 43 1019.7
20260503183122 70 246 1.0 3.0 0.00 0.00 0.00 42 1019.7
20260503183020 70 257 1.0 3.0 0.00 0.00 0.00 43 1019.7
20260503182919 70 155 1.0 3.0 0.00 0.00 0.00 44 1019.7
20260503182854 71 236 0.0 2.0 0.00 0.00 0.00 44 1019.7
20260503182842 71 229 0.0 3.0 0.00 0.00 0.00 45 1019.7
20260503182830 71 223 0.0 2.0 0.00 0.00 0.00 44 1019.7
20260503182645 70 19 0.0 2.0 0.00 0.00 0.00 45 1019.7
20260503182637 70 105 0.0 2.0 0.00 0.00 0.00 44 1019.7
20260503182418 70 347 0.0 2.0 0.00 0.00 0.00 45 1019.8
20260503182317 70 5 0.0 2.0 0.00 0.00 0.00 45 1019.8
20260503182255 70 5 0.0 2.0 0.00 0.00 0.00 45 1019.8
20260503182218 70 279 0.0 2.0 0.00 0.00 0.00 45 1019.8
20260503182116 70 283 0.0 2.0 0.00 0.00 0.00 46 1019.8
20260503182015 70 252 0.0 2.0 0.00 0.00 0.00 44 1019.8
20260503181917 70 126 0.0 2.0 0.00 0.00 0.00 45 1019.8
20260503181815 69 226 1.0 2.0 0.00 0.00 0.00 46 1019.9
20260503181759 69 251 1.0 4.0 0.00 0.00 0.00 43 1019.9
20260503181753 69 134 1.0 4.0 0.00 0.00 0.00 46 1019.9
20260503181716 69 224 1.0 4.0 0.00 0.00 0.00 45 1019.9
20260503181615 69 159 1.0 4.0 0.00 0.00 0.00 43 1019.9
20260503181554 69 310 1.0 4.0 0.00 0.00 0.00 43 1019.8
20260503181549 69 156 1.0 4.0 0.00 0.00 0.00 45 1019.9
20260503181539 69 219 1.0 4.0 0.00 0.00 0.00 44 1019.9
20260503181404 69 269 1.0 4.0 0.00 0.00 0.00 43 1019.9
20260503181212 69 280 1.0 4.0 0.00 0.00 0.00 47 1019.9
20260503181112 69 202 1.0 4.0 0.00 0.00 0.00 45 1019.9
20260503181011 69 156 1.0 4.0 0.00 0.00 0.00 45 1020.0
20260503180922 69 123 1.0 4.0 0.00 0.00 0.00 43 1019.9
20260503180904 69 136 1.0 4.0 0.00 0.00 0.00 45 1019.9
20260503180709 69 187 1.0 4.0 0.00 0.00 0.00 44 1020.0
20260503180608 69 241 1.0 4.0 0.00 0.00 0.00 43 1020.0
20260503180515 69 249 1.0 3.0 0.00 0.00 0.00 44 1020.0
20260503180507 69 226 1.0 4.0 0.00 0.00 0.00 43 1020.0
20260503180449 69 238 1.0 2.0 0.00 0.00 0.00 45 1020.0
20260503180327 69 140 1.0 2.0 0.00 0.00 0.00 44 1020.0
20260503180318 69 184 1.0 2.0 0.00 0.00 0.00 44 1020.0
20260503180104 69 253 1.0 3.0 0.00 0.00 0.00 43 1020.0
20260503180030 69 237 1.0 3.0 0.00 0.00 0.00 46 1020.0
20260503180021 69 242 1.0 3.0 0.00 0.00 0.00 44 1020.0
20260503175751 69 225 1.0 3.0 0.00 0.00 0.00 44 1020.0
20260503175702 69 281 1.0 3.0 0.00 0.00 0.00 45 1020.0
20260503175625 69 327 1.0 3.0 0.00 0.00 0.00 43 1020.0
20260503175617 69 325 1.0 3.0 0.00 0.00 0.00 46 1020.0
20260503175359 69 329 1.0 3.0 0.00 0.00 0.00 46 1020.0
20260503175251 69 295 0.0 3.0 0.00 0.00 0.00 45 1020.0
20260503175158 69 288 0.0 3.0 0.00 0.00 0.00 45 1020.1
20260503175056 69 342 0.0 3.0 0.00 0.00 0.00 45 1020.1
20260503174957 69 292 0.0 3.0 0.00 0.00 0.00 44 1020.1
20260503174925 69 268 0.0 3.0 0.00 0.00 0.00 44 1020.0
20260503174915 69 309 0.0 3.0 0.00 0.00 0.00 45 1020.1
20260503174750 69 267 0.0 3.0 0.00 0.00 0.00 44 1020.0
20260503174654 69 273 0.0 3.0 0.00 0.00 0.00 44 1020.1
20260503174555 69 272 0.0 3.0 0.00 0.00 0.00 43 1020.1
20260503174452 69 240 0.0 3.0 0.00 0.00 0.00 44 1020.1
20260503174425 68 280 0.0 2.0 0.00 0.00 0.00 47 1020.0
20260503174413 69 279 0.0 3.0 0.00 0.00 0.00 45 1020.1
20260503174251 68 280 0.0 2.0 0.00 0.00 0.00 47 1020.0
20260503174151 68 159 0.0 2.0 0.00 0.00 0.00 46 1020.0
20260503174052 68 170 0.0 2.0 0.00 0.00 0.00 46 1020.1
20260503173952 68 264 0.0 2.0 0.00 0.00 0.00 45 1020.1
20260503173851 68 264 0.0 2.0 0.00 0.00 0.00 45 1020.1
20260503173751 68 238 0.0 2.0 0.00 0.00 0.00 46 1020.1
20260503173652 68 203 1.0 7.0 0.00 0.00 0.00 46 1020.1
20260503173550 67 243 1.0 7.0 0.00 0.00 0.00 48 1020.2
20260503173450 67 272 1.0 7.0 0.00 0.00 0.00 46 1020.2
20260503173420 67 101 1.0 7.0 0.00 0.00 0.00 46 1020.2
20260503173410 67 275 1.0 7.0 0.00 0.00 0.00 47 1020.2
20260503173352 67 107 1.0 7.0 0.00 0.00 0.00 46 1020.2
20260503173146 67 99 1.0 7.0 0.00 0.00 0.00 45 1020.2
20260503173044 67 102 1.0 7.0 0.00 0.00 0.00 45 1020.2
20260503173009 67 327 1.0 7.0 0.00 0.00 0.00 43 1020.2
20260503173000 67 116 1.0 7.0 0.00 0.00 0.00 43 1020.2
20260503172748 67 333 1.0 7.0 0.00 0.00 0.00 44 1020.2
20260503172742 67 324 1.0 7.0 0.00 0.00 0.00 44 1020.2
20260503172707 67 260 1.0 3.0 0.00 0.00 0.00 45 1020.3
20260503172659 67 94 1.0 6.0 0.00 0.00 0.00 44 1020.3
20260503172441 67 260 1.0 3.0 0.00 0.00 0.00 44 1020.3
20260503172342 67 279 1.0 3.0 0.00 0.00 0.00 46 1020.3
20260503172248 67 277 1.0 3.0 0.00 0.00 0.00 45 1020.3
20260503172243 67 313 1.0 3.0 0.00 0.00 0.00 45 1020.3
20260503172142 67 46 1.0 3.0 0.00 0.00 0.00 44 1020.3
20260503172042 67 273 1.0 3.0 0.00 0.00 0.00 44 1020.4
20260503171942 67 273 1.0 3.0 0.00 0.00 0.00 45 1020.4
20260503171843 67 246 1.0 3.0 0.00 0.00 0.00 46 1020.3
20260503171813 67 261 1.0 4.0 0.00 0.00 0.00 45 1020.4
20260503171803 67 253 1.0 3.0 0.00 0.00 0.00 44 1020.3
20260503171758 67 230 1.0 3.0 0.00 0.00 0.00 44 1020.3
20260503171543 67 280 1.0 4.0 0.00 0.00 0.00 45 1020.4
20260503171442 67 258 1.0 4.0 0.00 0.00 0.00 45 1020.3
20260503171417 67 313 1.0 4.0 0.00 0.00 0.00 49 1020.4
20260503171405 67 293 1.0 4.0 0.00 0.00 0.00 47 1020.4
20260503171349 67 306 1.0 4.0 0.00 0.00 0.00 46 1020.4
20260503171237 67 293 1.0 4.0 0.00 0.00 0.00 47 1020.4
20260503171231 67 254 1.0 4.0 0.00 0.00 0.00 50 1020.4
20260503171218 67 241 1.0 4.0 0.00 0.00 0.00 46 1020.3
20260503170942 67 277 1.0 4.0 0.00 0.00 0.00 46 1020.4
20260503170935 67 298 0.0 2.0 0.00 0.00 0.00 46 1020.4
20260503170920 67 248 1.0 4.0 0.00 0.00 0.00 46 1020.3
20260503170904 67 277 1.0 4.0 0.00 0.00 0.00 47 1020.4
20260503170541 67 75 0.0 2.0 0.00 0.00 0.00 48 1020.4
20260503170507 67 240 0.0 2.0 0.00 0.00 0.00 47 1020.4
20260503170457 67 215 0.0 2.0 0.00 0.00 0.00 47 1020.4
20260503170246 67 247 0.0 2.0 0.00 0.00 0.00 50 1020.4
20260503170241 67 248 0.0 2.0 0.00 0.00 0.00 50 1020.4
20260503170141 67 300 0.0 2.0 0.00 0.00 0.00 49 1020.5
20260503160141 63 26 1.0 3.0 0.00 0.00 0.00 53 1021.3
20260503150923 59 150 0.0 3.0 0.00 0.00 0.00 62 1021.4
20260503150821 59 205 0.0 2.0 0.00 0.00 0.00 62 1021.5
20260503150746 59 209 0.0 2.0 0.00 0.00 0.00 62 1021.5
20260503150720 59 209 0.0 2.0 0.00 0.00 0.00 62 1021.4
20260503150621 59 276 0.0 2.0 0.00 0.00 0.00 64 1021.4
20260503150521 59 275 0.0 2.0 0.00 0.00 0.00 65 1021.5
20260503150421 59 244 0.0 2.0 0.00 0.00 0.00 63 1021.4
20260503150321 59 243 0.0 3.0 0.00 0.00 0.00 64 1021.5
20260503150251 60 276 0.0 4.0 0.00 0.00 0.00 63 1021.5
20260503150245 59 244 0.0 4.0 0.00 0.00 0.00 62 1021.5
20260503150221 59 245 0.0 4.0 0.00 0.00 0.00 62 1021.4
20260503150122 59 242 0.0 4.0 0.00 0.00 0.00 62 1021.4
20260503140308 56 190 0.0 2.0 0.00 0.00 0.00 71 1021.3